This demonstration page uses our WeatherBlox Daily Observations layout. Learn more.

Left ArrowRight Arrow

38.88101, -77.10428

Hourly Observations for October 11, 2022

Temp ( °F °C ) Dew Point ( °F °C ) Humidity (%) Winds ( mph kmh ) Pressure ( in mb ) Visibility ( mi km ) Precip ( " mm )
12:52 am 00:52 Clear 53 11.7 47 8.3 80 80 SSW 5 7 30.31 1027 10 16 0.00 0.00
1:52 am 01:52 Clear 50 10 47 8.3 89 89 SSW 5 7 30.32 1027 10 16 0.00 0.00
2:52 am 02:52 Clear 51 10.6 46 7.8 83 83 SW 3 6 30.31 1027 10 16 0.00 0.00
3:52 am 03:52 Clear 50 10 46 7.8 86 86 SW 5 7 30.31 1026 10 16 0.00 0.00
4:52 am 04:52 Clear 49 9.4 44 6.7 83 83 SW 3 6 30.32 1027 10 16 0.00 0.00
5:52 am 05:52 Partly Cloudy 49 9.4 43 6.1 80 80 WSW 3 6 30.34 1027 10 16 0.00 0.00
6:52 am 06:52 Mostly Clear 48 8.9 43 6.1 83 83 SW 6 9 30.35 1028 10 16 0.00 0.00
7:52 am 07:52 Sunny 49 9.4 44 6.7 83 83 SW 3 6 30.36 1028 10 16 0.00 0.00
8:52 am 08:52 Sunny 53 11.7 46 7.8 77 77 SSW 3 6 30.38 1029 10 16 0.00 0.00
9:52 am 09:52 Sunny 58 14.4 48 8.9 70 70 S 5 7 30.38 1029 10 16 0.00 0.00
10:52 am 10:52 Sunny 62 16.7 48 8.9 60 60 SE 5 7 30.39 1029 10 16 0.00 0.00
11:52 am 11:52 Sunny 66 18.9 48 8.9 52 52 SSE 5 7 30.37 1029 10 16 0.00 0.00
12:52 pm 12:52 Mostly Sunny 69 20.6 45 7.2 42 42 SSE 6 9 30.36 1028 10 16 0.00 0.00
1:52 pm 13:52 Mostly Sunny 72 22.2 44 6.7 37 37 S 9 15 30.33 1027 10 16 0.00 0.00
2:52 pm 14:52 Mostly Sunny 72 22.2 45 7.2 38 38 S 9 15 30.32 1027 10 16 0.00 0.00
3:52 pm 15:52 Mostly Sunny 73 22.8 44 6.7 35 35 SSE 6 9 30.31 1026 10 16 0.00 0.00
4:52 pm 16:52 Mostly Sunny 71 21.7 47 8.3 42 42 S 12 19 30.29 1026 10 16 0.00 0.00
5:52 pm 17:52 Mostly Sunny 69 20.6 47 8.3 45 45 S 9 15 30.28 1026 10 16 0.00 0.00
6:52 pm 18:52 Mostly Clear 65 18.3 47 8.3 52 52 S 6 9 30.29 1026 10 16 0.00 0.00
7:52 pm 19:52 Mostly Clear 62 16.7 52 11.1 70 70 S 7 11 30.29 1026 10 16 0.00 0.00
8:52 pm 20:52 Clear 62 16.7 46 7.8 56 56 SSE 10 17 30.30 1026 10 16 0.00 0.00
9:52 pm 21:52 Clear 59 15 46 7.8 62 62 S 9 15 30.31 1026 10 16 0.00 0.00
10:52 pm 22:52 Clear 59 15 48 8.9 67 67 SSW 5 7 30.30 1026 10 16 0.00 0.00
11:52 pm 23:52 Clear 56 13.3 48 8.9 75 75 SSW 6 9 30.30 1026 10 16 0.00 0.00

Powered by AerisWeather